Abilene Dyess, TX

7:17 AM CST on December 14, 2019 (GMT -0600)
Dyess Air Force Base

Weather History for KDYS - November, 2019

Change the Weather History Date:

Thursday, November 14, 2019

  Actual Average Record
Temperature  
Mean Temperature 42 °F -  
Max Temperature 55 °F 64 °F 84 °F (2006)
Min Temperature 30 °F 45 °F 21 °F (2018)
Degree Days  
Heating Degree Days 22    
Moisture  
Dew Point 27 °F    
Average Humidity 60    
Maximum Humidity 83    
Minimum Humidity 27    
Precipitation  
Precipitation 0.00 in - - ()
Sea Level Pressure  
Sea Level Pressure 30.30 in    
Wind  
Wind Speed 5 mph (North)    
Max Wind Speed 16 mph    
Max Gust Speed 23 mph    
Visibility 10 miles    
Events      
Averages and records for this station are not official NWS values.
T = Trace of Precipitation, MM = Missing Value Source: NWS Daily Summary

Daily Weather History Graph

Daily Weather History Graph

Search for Another Location

Airport or City:

Astronomy

Nov. 14, 2019 Rise Set
Actual Time 7:07 AM CST 5:39 PM CST
Civil Twilight 6:41 AM CST 6:05 PM CST
Nautical Twilight 6:12 AM CST 6:35 PM CST
Astronomical Twilight 5:43 AM CST 7:04 PM CST
Moon 7:31 PM CST 9:01 AM CST
Length of Visible Light 11h 23m
Length of Day
10h 31m
Waning Gibbous, 95% of the Moon is Illuminated
Nov 14
Waning Gibbous
Nov 19
Last Quarter
Nov 26
New
Dec 4
First Quarter
Dec 11
Full

Hourly Weather History & Observations

Time (CST) Temp. Windchill Dew Point Humidity Pressure Visibility Wind Dir Wind Speed Gust Speed Precip Events Conditions
12:56 AM 36.1 °F - 29.7 °F 77% 30.08 in 10.0 mi Calm Calm - N/A   Clear
1:56 AM 34.2 °F - 28.6 °F 80% 30.10 in 10.0 mi Calm Calm - N/A   Clear
2:56 AM 33.8 °F 29.6 °F 28.6 °F 81% 30.12 in 10.0 mi West 4.6 mph - N/A   Clear
3:56 AM 34.5 °F - 29.3 °F 81% 30.14 in 10.0 mi Calm Calm - N/A   Clear
4:56 AM 32.9 °F - 28.0 °F 82% 30.17 in 10.0 mi Calm Calm - N/A   Clear
5:56 AM 30.0 °F - 25.2 °F 82% 30.22 in 10.0 mi Calm Calm - N/A   Clear
6:56 AM 31.5 °F 24.9 °F 26.6 °F 82% 30.25 in 10.0 mi NW 6.9 mph - N/A   Clear
7:56 AM 33.3 °F 27.1 °F 28.6 °F 83% 30.29 in 10.0 mi NW 6.9 mph - N/A   Clear
8:56 AM 36.7 °F 28.0 °F 29.1 °F 74% 30.33 in 10.0 mi North 13.8 mph - N/A   Clear
9:56 AM 43.0 °F 36.0 °F 26.6 °F 52% 30.34 in 10.0 mi NNE 13.8 mph - N/A   Clear
10:56 AM 47.3 °F - 23.5 °F 39% 30.37 in 10.0 mi NNE 13.8 mph - N/A   Clear
11:56 AM 50.9 °F - 22.8 °F 33% 30.35 in 10.0 mi NNE 12.7 mph - N/A   Clear
12:56 PM 54.3 °F - 21.0 °F 27% 30.34 in 10.0 mi NNE 16.1 mph 21.9 mph N/A   Clear
2:56 PM 55.6 °F - 25.3 °F 31% 30.32 in 10.0 mi NNE 16.1 mph 23.0 mph N/A   Clear
3:56 PM 55.4 °F - 27.5 °F 34% 30.32 in 10.0 mi NNE 13.8 mph - N/A   Clear
4:56 PM 54.1 °F - 27.1 °F 35% 30.34 in 10.0 mi NNE 13.8 mph - N/A   Clear
5:56 PM 48.4 °F - 28.6 °F 46% 30.38 in 10.0 mi North 9.2 mph - N/A   Clear
6:56 PM 43.7 °F 38.6 °F 28.6 °F 55% 30.40 in 10.0 mi North 9.2 mph - N/A   Clear
7:56 PM 42.4 °F 37.5 °F 28.8 °F 58% 30.44 in 10.0 mi NNE 8.1 mph - N/A   Clear
8:56 PM 38.7 °F 36.3 °F 27.5 °F 64% 30.45 in 10.0 mi North 3.5 mph - N/A   Clear
9:56 PM 38.3 °F - 27.1 °F 64% 30.43 in 10.0 mi Calm Calm - N/A   Clear
10:56 PM 36.7 °F 32.9 °F 27.9 °F 70% 30.43 in 10.0 mi WNW 4.6 mph - N/A   Clear